Regional Weather Roundup
Issued by NWS Albany, NY

Home | Current Version | Previous Version | Text Only | Print | Product List | Glossary On
Versions: 1 2 3 4 5 6 7 8 9 10 11 12 13 14 15 16 17 18 19 20 21 22 23 24 25 26 27
000
ASUS41 KALY 242110
RWRALY

NEW YORK STATE HOURLY WEATHER ROUNDUP
NATIONAL WEATHER SERVICE ALBANY NY
500 PM EDT SUN SEP 24 2017

NOTE: "FAIR" INDICATES FEW OR NO CLOUDS BELOW 12,000 FEET WITH NO
SIGNIFICANT WEATHER AND/OR NO OBSTRUCTIONS TO VISIBILITY.

NYZ032-033-038>043-046>054-057>066-NYZ062>081-082-084-242200-
EAST


CITY           SKY/WX    TMP DP  RH WIND       PRES   REMARKS
ALBANY         SUNNY     90  66  45 NE3       30.03F HX  92
GLENS FALLS    SUNNY     86  68  54 S6        30.02F
POUGHKEEPSIE   SUNNY     90  61  37 NW5       30.00F HX  90
NEWBURGH       SUNNY     88  64  45 E6        30.05F
MONTGOMERY     SUNNY     88  67  49 N6        30.02F HX  91
WHITE PLAINS   SUNNY     86  65  49 SE3       30.02F
ISLIP          SUNNY     80  62  54 S7        30.02F
NEW YORK CITY  MOSUNNY   89  64  43 NE5       30.00F HX  90
CENTRAL PARK   SUNNY     88  64  44 E5        30.04F
$$

NYZ005>009-017-018-044>046-055-056-242200-
CENTRAL


CITY           SKY/WX    TMP DP  RH WIND       PRES   REMARKS
FULTON         SUNNY     84  66  54 W8        30.09F
SYRACUSE       SUNNY     87  67  51 W9        30.06F HX  90
ROME           SUNNY     86  69  56 W6        30.06F HX  90
ELMIRA         SUNNY     88  66  48 NE9       30.09F HX  90
BINGHAMTON     SUNNY     84  61  45 N9        30.12F
MONTICELLO     SUNNY     87  66  49 N5        30.10S
$$

NYZ026>034-041>043-087-242200-
NORTH


CITY           SKY/WX    TMP DP  RH WIND       PRES   REMARKS
WATERTOWN      SUNNY     79  71  76 W7        30.07F
FORT DRUM      NOT AVBL
OGDENSBURG     FAIR      91  66  43 W3        30.04S HX  94
MASSENA        SUNNY     88  70  55 VRB3      30.04S HX  93
SARANAC LAKE   SUNNY     85  64  49 W6        30.10S
PLATTSBURGH    SUNNY     84  67  56 SE6       30.01F
$$

NYZ001>004-010>016-019>021-085-242200-
WEST


CITY           SKY/WX    TMP DP  RH WIND       PRES   REMARKS
NIAGARA FALLS  SUNNY     90  66  45 N9        30.09F HX  92
BUFFALO        MOSUNNY   89  66  46 VRB3      30.10F HX  91
DUNKIRK        SUNNY     82  69  64 N5        30.11F
JAMESTOWN      SUNNY     83  65  54 NE5       30.16F
WELLSVILLE     SUNNY     86  63  45 NE7       30.19S
ROCHESTER      MOSUNNY   90  68  48 NE7       30.09F HX  94
PENN YAN       SUNNY     86  66  51 CALM      30.12F
$$

             KEY
       WCI = WIND CHILL INDEX
       VSB = VISIBILITY
       HX  = HEAT INDEX
$$




USA.gov is the U.S. government's official web portal to all federal, state and local government web resources and services.